Regional Weather Roundup
Issued by NWS

Home | Current Version | Previous Version | Text Only | Print | Product List | Glossary On
Versions: 1 2 3 4 5 6 7 8 9 10 11 12 13 14 15 16 17 18 19 20 21 22 23 24 25 26 27 28 29 30 31 32 33 34 35 36 37 38 39 40 41 42 43 44 45 46 47 48 49 50
000
ASUS44 KJAN 250910
RWRMS

MISSISSIPPI HOURLY WEATHER ROUNDUP
NATIONAL WEATHER SERVICE JACKSON MS
400 AM CDT TUE APR 25 2017

NOTE: "FAIR: INDICATES FEW OR NO CLOUDS BELOW 12,000 FEET WITH NO
SIGNIFICANT WEATHER AND/OR OBSTRUCTIONS TO VISIBILITY.

MSZ001>002-007>008-010>013-018>021-025>028-034>036-251000-
NORTHWEST MISSISSIPPI

CITY           SKY/WX    TMP DP  RH WIND       PRES   REMARKS
CLEVELAND      FAIR      56  53  90 CALM      29.74F
GREENWOOD      CLEAR     54  53  97 CALM      29.76S
GREENVILLE     CLEAR     54  48  80 SE3       29.74F
OXFORD         FAIR      52  50  93 SE6       29.79S
TUNICA           N/A     50  50 100 CALM      29.77S FOG
WINONA         FAIR      49  49 100 CALM      29.77S
$$

MSZ003>006-009-014>017-022>024-029>033-037>039-251000-
NORTHEAST MISSISSIPPI

CITY           SKY/WX    TMP DP  RH WIND       PRES   REMARKS
COLUMBUS AFB   CLEAR     48  48 100 CALM      29.77F FOG
CORINTH        FAIR      48  48 100 SE5       29.77S FOG
GOLDN TRIANGLE CLEAR     50  45  81 CALM      29.75S
STARKVILLE     FAIR      46  46 100 CALM      29.79F
TUPELO         PTCLDY    51  48  89 CALM      29.78S
$$

MSZ040-058-251000-
CENTRAL MISSISSIPPI

CITY           SKY/WX    TMP DP  RH WIND       PRES   REMARKS
JACKSON INTL   CLEAR     54  52  93 CALM      29.77F
JACKSON HAWKNS CLEAR     54  52  93 E5        29.77F
MADISON        FAIR      52  50  93 CALM      29.76F FOG
MERIDIAN KEY   CLEAR     51  49  92 S3        29.79S
MERIDIAN NAS   CLEAR     50  46  86 CALM      29.78F
RAYMOND        FAIR      50  50 100 CALM      29.76S FOG
VICKSBURG VKS  SUNNY     50  48  93 CALM      29.73S
$$

MSZ059>079-251000-
SOUTH MISSISSIPPI

CITY           SKY/WX    TMP DP  RH WIND       PRES   REMARKS
BROOKHAVEN     FAIR      48  46  93 CALM      29.79S
HATTIESBURG    CLEAR     52  50  93 CALM      29.80S
LAUREL         FAIR      53  53 100 CALM      29.79F
MCCOMB         CLEAR     48  45  89 CALM      29.78R
NATCHEZ        CLEAR     52  48  86 CALM      29.77S
PINE BELT      PTCLDY    52  46  82 CALM      29.80R
$$

MSZ080>082-251000-
COASTAL MISSISSIPPI

CITY           SKY/WX    TMP DP  RH WIND       PRES   REMARKS
BILOXI         CLEAR     62  58  89 CALM      29.78S
PASCAGOULA     CLEAR     51  49  92 CALM      29.79S
GULFPORT       CLEAR     58  56  93 CALM      29.78S
$$

LAZ007>009-015>016-023>026-251000-
NORTHEAST LOUISIANA

CITY           SKY/WX    TMP DP  RH WIND       PRES   REMARKS
BASTROP        FAIR      54  49  84 CALM      29.74R
TALLULAH/VBURG CLEAR     52  50  93 CALM      29.75S
VIDALIA        FAIR      53  51  92 CALM      29.75F
$$



USA.gov is the U.S. government's official web portal to all federal, state and local government web resources and services.